User: anonymous   Login
Location: �chenoz-la-M�line
(47.6009°N, 6.1354°E)
Time: 15:39:36
(UTC+00:00)
Language:

Cosmos 2237 Rocket - Orbit

View from above orbital plane
View from above orbital plane
View from above satellite
View from above satellite

Ground track
Ground track

The orbit data is extracted from the following two-line orbital elements,

1 22566U 93016B   21104.20124154  .00000152  00000-0  10286-3 0  9995
2 22566  71.0108  14.4480 0010167 180.4670 179.6445 14.14974453448871
Epoch (UTC): 14 April 2021 04:49:47
Eccentricity: 0.0010167
inclination: 71.0108°
perigee height: 835 km
apogee height: 850 km
right ascension of ascending node: 14.4480°
argument of perigee: 180.4670°
revolutions per day: 14.14974453
mean anomaly at epoch: 179.6445°
orbit number at epoch: 44887

The dashed part of the orbit path shows where the satellite is in the earth's shadow,  

DLR